Location: Góry Miechowskie
(50.3599°N, 20.1803°E)
Time: 06:30:14
(UTC+00:00)

A-11 Canister half - Pass Details

Date: 19 September 2024
Orbit: 1515 x 1684 km, 47.2° (Epoch: 04 October)

Event Time Altitude Azimuth Distance (km) Brightness Sun altitude
Rises 14:53:09 0° 200° (SSW) 4,774 12.2 16.5°
Reaches altitude 10° 14:56:51 10° 189° (S) 3,765 11.5 15.9°
Maximum altitude 15:04:22 27° 136° (SE) 2,608 10.1 14.8°
Drops below altitude 10° 15:11:44 10° 83° (E) 3,694 10.4 13.7°
Sets 15:15:18 0° 72° (ENE) 4,668 10.9 13.1°
